TimeEDT,TemperatureF,Dew PointF,Humidity,Sea Level PressureIn,VisibilityMPH,Wind Direction,Wind SpeedMPH,Gust SpeedMPH,PrecipitationIn,Events,Conditions,WindDirDegrees,DateUTC
12:15 AM,62.6,44.6,52,29.99,10.0,SW,10.4,-,N/A,,Clear,230,2013-03-17 04:15:00
12:35 AM,60.8,44.6,55,29.99,10.0,SW,9.2,-,N/A,,Clear,230,2013-03-17 04:35:00
12:55 AM,60.8,46.4,59,29.99,10.0,SW,8.1,-,N/A,,Clear,230,2013-03-17 04:55:00
1:15 AM,60.8,46.4,59,29.99,10.0,SW,8.1,-,N/A,,Clear,220,2013-03-17 05:15:00
1:35 AM,60.8,46.4,59,29.99,10.0,SW,6.9,-,N/A,,Clear,220,2013-03-17 05:35:00
1:55 AM,55.4,44.6,67,30.00,10.0,SW,6.9,-,N/A,,Clear,230,2013-03-17 05:55:00
2:15 AM,59.0,46.4,63,30.00,10.0,SW,9.2,-,N/A,,Clear,220,2013-03-17 06:15:00
2:35 AM,57.2,46.4,67,30.00,10.0,WSW,8.1,-,N/A,,Clear,240,2013-03-17 06:35:00
2:55 AM,55.4,46.4,72,30.00,10.0,WSW,9.2,-,N/A,,Clear,240,2013-03-17 06:55:00
3:15 AM,55.4,46.4,72,30.00,10.0,WSW,8.1,-,N/A,,Clear,240,2013-03-17 07:15:00
3:35 AM,57.2,48.2,72,30.00,10.0,WSW,6.9,-,N/A,,Clear,240,2013-03-17 07:35:00
3:55 AM,57.2,48.2,72,29.99,10.0,WSW,8.1,-,N/A,,Clear,240,2013-03-17 07:55:00
4:15 AM,55.4,48.2,77,29.99,10.0,WSW,6.9,-,N/A,,Clear,240,2013-03-17 08:15:00
4:35 AM,55.4,48.2,77,29.99,10.0,WSW,5.8,-,N/A,,Clear,240,2013-03-17 08:35:00
5:15 AM,57.2,50.0,77,29.99,10.0,SW,6.9,-,N/A,,Clear,230,2013-03-17 09:15:00
5:35 AM,57.2,50.0,77,29.99,10.0,SW,6.9,-,N/A,,Clear,230,2013-03-17 09:35:00
5:55 AM,57.2,50.0,77,30.00,10.0,SW,9.2,-,N/A,,Clear,230,2013-03-17 09:55:00
6:15 AM,59.0,50.0,72,30.00,10.0,SW,5.8,-,N/A,,Clear,220,2013-03-17 10:15:00
6:35 AM,55.4,50.0,82,30.01,10.0,SW,6.9,-,N/A,,Clear,220,2013-03-17 10:35:00
6:55 AM,55.4,50.0,82,30.02,10.0,SW,6.9,-,N/A,,Clear,220,2013-03-17 10:55:00
7:15 AM,55.4,50.0,82,30.02,10.0,SW,4.6,-,N/A,,Clear,220,2013-03-17 11:15:00
7:35 AM,55.4,50.0,82,30.03,10.0,SW,3.5,-,N/A,,Clear,230,2013-03-17 11:35:00
7:55 AM,53.6,50.0,88,30.03,10.0,SW,6.9,-,N/A,,Clear,220,2013-03-17 11:55:00
8:15 AM,55.4,50.0,82,30.03,10.0,SW,6.9,-,N/A,,Clear,230,2013-03-17 12:15:00
8:35 AM,57.2,51.8,82,30.04,10.0,WSW,6.9,-,N/A,,Clear,240,2013-03-17 12:35:00
8:55 AM,59.0,51.8,77,30.04,10.0,SW,8.1,-,N/A,,Clear,230,2013-03-17 12:55:00
9:15 AM,60.8,51.8,72,30.05,10.0,SW,10.4,-,N/A,,Clear,230,2013-03-17 13:15:00
9:35 AM,60.8,51.8,72,30.05,10.0,WSW,12.7,-,N/A,,Clear,240,2013-03-17 13:35:00
9:55 AM,64.4,53.6,68,30.05,10.0,WSW,15.0,-,N/A,,Clear,240,2013-03-17 13:55:00
10:15 AM,64.4,53.6,68,30.05,10.0,WSW,16.1,24.2,N/A,,Clear,250,2013-03-17 14:15:00
10:35 AM,66.2,53.6,64,30.05,10.0,WSW,17.3,21.9,N/A,,Clear,250,2013-03-17 14:35:00
10:55 AM,66.2,53.6,64,30.05,10.0,WSW,13.8,-,N/A,,Clear,250,2013-03-17 14:55:00
11:15 AM,68.0,53.6,60,30.05,10.0,WSW,13.8,21.9,N/A,,Clear,250,2013-03-17 15:15:00
11:55 AM,71.6,53.6,53,30.03,10.0,WSW,13.8,19.6,N/A,,Clear,250,2013-03-17 15:55:00
12:15 PM,73.4,53.6,50,30.03,10.0,WSW,10.4,18.4,N/A,,Clear,240,2013-03-17 16:15:00
12:35 PM,71.6,53.6,53,30.03,10.0,SW,13.8,17.3,N/A,,Clear,230,2013-03-17 16:35:00
1:15 PM,73.4,53.6,50,30.02,10.0,West,15.0,-,N/A,,Clear,260,2013-03-17 17:15:00
1:35 PM,73.4,53.6,50,30.01,10.0,SW,15.0,19.6,N/A,,Scattered Clouds,220,2013-03-17 17:35:00
1:55 PM,73.4,51.8,47,30.00,10.0,West,6.9,-,N/A,,Scattered Clouds,260,2013-03-17 17:55:00
2:15 PM,73.4,51.8,47,30.00,10.0,SW,13.8,-,N/A,,Scattered Clouds,220,2013-03-17 18:15:00
2:35 PM,75.2,51.8,44,29.98,10.0,West,11.5,-,N/A,,Scattered Clouds,260,2013-03-17 18:35:00
2:55 PM,73.4,51.8,47,29.98,10.0,WSW,9.2,18.4,N/A,,Scattered Clouds,240,2013-03-17 18:55:00
3:15 PM,75.2,51.8,44,29.97,10.0,SW,10.4,19.6,N/A,,Scattered Clouds,230,2013-03-17 19:15:00
3:35 PM,73.4,50.0,44,29.96,10.0,South,12.7,-,N/A,,Scattered Clouds,190,2013-03-17 19:35:00
3:55 PM,73.4,50.0,44,29.97,10.0,SW,15.0,19.6,N/A,,Scattered Clouds,220,2013-03-17 19:55:00
4:15 PM,73.4,50.0,44,29.96,10.0,SSW,8.1,19.6,N/A,,Scattered Clouds,210,2013-03-17 20:15:00
4:35 PM,71.6,48.2,43,29.97,10.0,SW,13.8,-,N/A,,Clear,230,2013-03-17 20:35:00
4:55 PM,71.6,48.2,43,29.97,10.0,SSW,10.4,19.6,N/A,,Clear,210,2013-03-17 20:55:00
5:15 PM,71.6,48.2,43,29.97,10.0,SW,11.5,-,N/A,,Clear,230,2013-03-17 21:15:00
5:35 PM,71.6,50.0,46,29.97,10.0,SW,9.2,-,N/A,,Clear,220,2013-03-17 21:35:00
5:55 PM,69.8,50.0,49,29.97,10.0,SSW,8.1,-,N/A,,Clear,210,2013-03-17 21:55:00
6:35 PM,69.8,50.0,49,29.98,10.0,SSW,8.1,-,N/A,,Clear,210,2013-03-17 22:35:00
6:55 PM,69.8,50.0,49,29.98,10.0,SSW,10.4,-,N/A,,Clear,210,2013-03-17 22:55:00
7:15 PM,68.0,51.8,56,29.98,10.0,SSW,6.9,-,N/A,,Clear,210,2013-03-17 23:15:00
7:35 PM,68.0,51.8,56,30.00,10.0,SW,8.1,-,N/A,,Clear,220,2013-03-17 23:35:00
7:55 PM,66.2,51.8,60,30.00,10.0,SSW,9.2,-,N/A,,Clear,210,2013-03-17 23:55:00
8:15 PM,64.4,51.8,64,30.01,10.0,SSW,5.8,-,N/A,,Clear,200,2013-03-18 00:15:00
8:35 PM,64.4,51.8,64,30.01,10.0,SSW,8.1,-,N/A,,Clear,200,2013-03-18 00:35:00
8:55 PM,64.4,51.8,64,30.01,10.0,SSW,6.9,-,N/A,,Clear,200,2013-03-18 00:55:00
9:15 PM,62.6,51.8,68,30.02,10.0,SSW,4.6,-,N/A,,Clear,200,2013-03-18 01:15:00
9:35 PM,62.6,51.8,68,30.02,10.0,South,4.6,-,N/A,,Clear,180,2013-03-18 01:35:00
9:55 PM,62.6,51.8,68,30.03,10.0,South,4.6,-,N/A,,Clear,190,2013-03-18 01:55:00
10:15 PM,62.6,53.6,72,30.03,10.0,South,4.6,-,N/A,,Clear,190,2013-03-18 02:15:00
10:35 PM,60.8,53.6,77,30.04,10.0,South,5.8,-,N/A,,Clear,190,2013-03-18 02:35:00
10:55 PM,60.8,53.6,77,30.04,10.0,South,4.6,-,N/A,,Clear,180,2013-03-18 02:55:00
11:15 PM,60.8,53.6,77,30.05,10.0,South,4.6,-,N/A,,Clear,190,2013-03-18 03:15:00
11:35 PM,62.6,53.6,72,30.05,10.0,South,5.8,-,N/A,,Clear,190,2013-03-18 03:35:00
11:55 PM,62.6,53.6,72,30.05,10.0,South,6.9,-,N/A,,Clear,190,2013-03-18 03:55:00